Flag for Germany Weather past 2 weeks in Lünen, North Rhine-Westphalia, Germany

Now
60 °F

Passing clouds.


Feels Like: 60 °F
Forecast: 58 / 78 °F
Wind: 1 mph from Southeast

Location: Muenster / Osnabrueck

Current Time: Aug 3, 2015 at 5:22:33 AM

Latest Report: Aug 3, 2015 at 5:00 AM


Visibility: 19 mi

Pressure: 30.02 "Hg

Humidity: 62%

Dew point: 47 °F

Location of LünenLocation

Historic Weather in Lünen — Graph

°F

Lünen temperature yesterday

Maximum temperature yesterday: 76 °F (at 5:00 PM)
Minimum temperature yesterday: 48 °F (at 5:00 AM)
Average temperature yesterday: 66 °F

Past Weeks' High & Low Weather Summary

 TemperatureHumidityPressure
High81 °F (Jul 21, 5:00 PM)98% (Jul 25, 4:00 AM)30.16 "Hg (Jul 25, 4:00 AM)
Low46 °F (Jul 31, 7:00 AM)33% (Aug 2, 7:00 PM)29.47 "Hg (Jul 25, 9:00 AM)
Average63 °F69%29.87 "Hg
* Reported Jul 19 4:00 AM — Aug 3 4:00 AM, Lünen, Weather by CustomWeather, © 2015

Note: Actual official high and low records may vary slightly from our data, if they occured in-between our weather recording intervals... More about our weather records

Advertising

Lünen weather history for previous 24 hours

 ConditionsComfort  
Time TempWeatherWind HumidityBarometerVisibility
4:00 AM
Mon, Aug 3
59 °FPassing clouds.1 mph64%30.03 "Hg19 mi
3:00 AM62 °FPassing clouds.1 mph60%30.05 "Hg19 mi
2:00 AM61 °FPassing clouds.1 mph67%30.06 "Hg19 mi
1:00 AM63 °FPassing clouds.1 mph61%30.07 "Hg19 mi
11:00 PM
Sun, Aug 2
65 °FPassing clouds.2 mph57%30.08 "Hg19 mi
10:00 PM66 °FPassing clouds.2 mph57%30.09 "Hg22 mi
9:00 PM70 °FOvercast.1 mph50%30.08 "Hg25 mi
8:00 PM73 °FOvercast.3 mph44%30.08 "Hg25 mi
7:00 PM76 °FOvercast.2 mph33%30.09 "Hg28 mi
6:00 PM76 °FOvercast.3 mph34%30.11 "Hg28 mi
5:00 PM76 °FOvercast.1 mph34%30.11 "Hg28 mi
4:00 PM75 °FOvercast.3 mph36%30.12 "Hg28 mi
3:00 PM74 °FPartly sunny.2 mph35%30.14 "Hg25 mi
2:00 PM74 °FOvercast.2 mph37%30.14 "Hg25 mi
1:00 PM73 °FPartly sunny.2 mph38%30.16 "Hg25 mi
12:00 PM71 °FPartly sunny.2 mph42%30.16 "Hg25 mi
11:00 AM69 °FOvercast.1 mph45%30.16 "Hg25 mi
10:00 AM68 °FPartly sunny.1 mph50%30.15 "Hg16 mi
9:00 AM62 °FScattered clouds.No wind66%30.14 "Hg11 mi
8:00 AM55 °FPassing clouds.No wind83%30.13 "Hg9 mi
7:00 AM49 °FFog.No wind96%30.12 "Hg7 mi
5:00 AM48 °FFog.1 mph96%30.10 "Hg1 mi
Weather by CustomWeather, © 2015

See weather overviewHow to use our weather pages